Preview of NWS' New Version of Forecast
This preview is not operational and should not be used for support decisions.

Regional Weather Roundup (RWR)

Issued by National Weather Service (NWS)

                            
000
ASUS43 KLSX 181957
RWRMO 

WEATHER SUMMARY FOR MISSOURI
NATIONAL WEATHER SERVICE SPRINGFIELD MO
300 PM CDT MON MAR 18 2019

NOTE: "FAIR" INDICATES FEW OR NO CLOUDS BELOW 12,000 FEET WITH NO
       SIGNIFICANT WEATHER AND/OR OBSTRUCTIONS TO VISIBILITY.
       CURRENT SKY AND/OR WEATHER CONDITIONS ARE NOT AVAILABLE FOR
       CHILLICOTHE AND FARMINGTON.

MOZ001>031-035>038-043-044-053-054-182100-
...NORTHERN AND WESTERN MISSOURI...
  
CITY           SKY/WX    TMP DP  RH WIND       PRES   REMARKS
KANSAS CTY INT PTSUNNY   51  24  34 SE7       30.37F                  
LEE'S SUMMIT   SUNNY     53  26  35 MISG      30.38F                  
ST JOSEPH      SUNNY     51  21  30 E6        30.40F                  
CHILLICOTHE      N/A     50  26  39 E3        30.40F                  
     
$$
MOZ066>068-077>081-088>096-101>105-182100-
...SOUTHWEST MISSOURI...
  
CITY           SKY/WX    TMP DP  RH WIND       PRES   REMARKS
SPRINGFIELD    SUNNY     56  29  35 VRB3      30.33F                  
JOPLIN         SUNNY     58  30  34 NE9       30.34F                  
BRANSON        MOSUNNY   57  25  28 NE6       30.34F                  
               
$$
MOZ032>034-039>042-045>050-055>058-069>072-182100-
...CENTRAL MISSOURI...  
  
CITY           SKY/WX    TMP DP  RH WIND       PRES   REMARKS
COLUMBIA       NOT AVBL                                               
JEFFERSON CITY SUNNY     53  17  24 VRB5      30.38F                  
ROLLA          SUNNY     52  23  32 N9        30.36F                  
SEDALIA        SUNNY     51  24  34 N8        30.38F                  
WARRENSBURG    SUNNY     52  25  35 NE5       30.39F                  
               
$$
MOZ051-052-059>065-182100-
...EAST CENTRAL MISSOURI...
  
CITY           SKY/WX    TMP DP  RH WIND       PRES   REMARKS
ST LOUIS INTL  MOSUNNY   50  19  29 VRB6      30.40F                  
                   
$$
MOZ072>076-082>087-097>100-106>115-182100-
...SOUTH CENTRAL AND SOUTHEAST MISSOURI...
  
CITY           SKY/WX    TMP DP  RH WIND       PRES   REMARKS
CAPE GIRARDEAU FAIR      54  24  31 CALM      30.37F                  
POPLAR BLUFF   PTSUNNY   54  31  41 VRB5      30.36F                  
WEST PLAINS    MOSUNNY   58  27  30 N8        30.33F                  
                                       
$$